Weather in Chaybukha

Russia / Magadan District     61°48′12″N   160°24′43″E
temp.,
°C
wind,
m/s
gust,
m/s
humid.,
%
clouds,
%
prec.,
mm/h
press.,
hPa
HPBL,
m
19 september, sun
sun1923:00+6s4788100 0.1 1014243
02:00+7s4786100 0.2 1013235
05:00+8s3686100 0.3 1013248
08:00+8sse2487100 0.3 1013142
11:00+9s3787100 0.4 1013324
14:00+10sw4672100 0.0 1011588
17:00+9wsw2280100 0.0 101133
20:00+8ese1185100 0.0 101114
20 september, mon
mon2023:00+9se0172100 0.0 101013
02:00+8ene2274100 0.0 100921
05:00+8ne3474100 0.0 100767
08:00+9ne2372100 0.0 100686
11:00+11nne2468100 0.0 1005428
14:00+12ne1360100 0.0 1004997
17:00+10ne5775100 0.1 1004162
20:00+9ne468299 0.4 1004126
21 september, tue
tue2123:00+9ene2285100 0.6 100431
02:00+9ne2385100 0.3 100435
05:00+9ene3585100 0.7 100586
08:00+9ene4683100 0.2 1007136
11:00+9ene4680100 0.4 1009219
14:00+10ne456997 0.0 1010716
17:00+10nne457067 0.0 1011110
20:00+7ne3478100 0.0 101359
22 september, wed
wed2223:00+7ne3378100 0.0 101457
02:00+8ne447987 0.0 101586
05:00+7nne458064 0.0 101694
08:00+8nne347594 0.0 1018113
11:00+10nne336893 0.0 1018385
14:00+11nnw116368 0.1 1018678
17:00+10nnw117064 0.1 101815
20:00+8sse017654 0.0 101912
23 september, thu
thu2323:00+8se117695 0.0 102011
02:00+8sse1175100 0.0 101910
05:00+7s118063 0.0 102010
08:00+8s22755 0.0 102067
11:00+10wsw33686 0.0 1020485
14:00+9wsw32698 0.0 1020499
17:00+9sw2374100 0.0 1020179
20:00+7s2281100 0.3 102125